| time (UTC) | temp C | wind direction | speed KPH | gust KPH | rain 1hr cm | rain 24hr cm | rain mn cm | humidity % | barometer mb |
| 20260510000010 | 12 | 0.0 | 0.0 | 0.00 | 0.00 | 0.00 | 66 | 1023.7 | |
| 20260509234510 | 11 | 0.0 | 0.0 | 0.00 | 0.00 | 0.00 | 67 | 1023.8 | |
| 20260509233011 | 10 | 0.0 | 0.0 | 0.00 | 0.00 | 0.00 | 67 | 1023.8 | |
| 20260509231512 | 10 | 0.0 | 0.0 | 0.00 | 0.00 | 0.00 | 66 | 1023.5 | |
| 20260509230012 | 10 | 0.0 | 0.0 | 0.00 | 0.00 | 0.00 | 66 | 1023.4 | |
| 20260509224511 | 10 | 0.0 | 0.0 | 0.00 | 0.00 | 0.00 | 66 | 1023.5 | |
| 20260509223011 | 10 | 0.0 | 0.0 | 0.00 | 0.00 | 0.00 | 66 | 1023.5 | |
| 20260509221512 | 10 | 0.0 | 0.0 | 0.00 | 0.00 | 0.00 | 66 | 1023.3 | |
| 20260509220010 | 10 | 0.0 | 0.0 | 0.00 | 0.00 | 0.00 | 65 | 1023.1 | |
| 20260509214513 | 10 | 0.0 | 0.0 | 0.00 | 0.00 | 0.00 | 65 | 1023.1 | |
| 20260509213013 | 10 | 0.0 | 0.0 | 0.00 | 0.00 | 0.00 | 65 | 1023.0 | |
| 20260509211512 | 10 | 0.0 | 0.0 | 0.00 | 0.00 | 0.00 | 65 | 1022.8 | |
| 20260509210011 | 10 | 0.0 | 0.0 | 0.00 | 0.00 | 0.00 | 64 | 1022.9 | |
| 20260509204510 | 10 | 0.0 | 0.0 | 0.00 | 0.00 | 0.00 | 63 | 1022.7 | |
| 20260509203012 | 11 | 0.0 | 0.0 | 0.00 | 0.00 | 0.00 | 63 | 1022.4 | |
| 20260509201512 | 11 | 0.0 | 0.0 | 0.00 | 0.00 | 0.00 | 63 | 1022.3 | |
| 20260509200011 | 11 | 0.0 | 0.0 | 0.00 | 0.00 | 0.00 | 63 | 1022.3 | |
| 20260509194513 | 11 | 0.0 | 0.0 | 0.00 | 0.00 | 0.00 | 62 | 1022.3 | |
| 20260509193017 | 11 | 0.0 | 0.0 | 0.00 | 0.00 | 0.00 | 62 | 1022.3 | |
| 20260509191512 | 11 | 0.0 | 0.0 | 0.00 | 0.00 | 0.00 | 61 | 1022.2 | |
| 20260509190010 | 11 | 0.0 | 0.0 | 0.00 | 0.00 | 0.00 | 61 | 1022.2 | |
| 20260509184515 | 11 | 0.0 | 0.0 | 0.00 | 0.00 | 0.00 | 62 | 1022.2 | |
| 20260509183015 | 11 | 0.0 | 0.0 | 0.00 | 0.00 | 0.00 | 62 | 1022.2 | |
| 20260509181512 | 11 | 0.0 | 0.0 | 0.00 | 0.00 | 0.00 | 63 | 1022.2 | |
| 20260509180012 | 11 | 0.0 | 0.0 | 0.00 | 0.00 | 0.00 | 61 | 1022.4 | |
| 20260509174510 | 12 | 0.0 | 0.0 | 0.00 | 0.00 | 0.00 | 59 | 1022.4 | |
| 20260509173013 | 12 | 0.0 | 0.0 | 0.00 | 0.00 | 0.00 | 59 | 1022.4 | |
| 20260509171513 | 12 | 0.0 | 0.0 | 0.00 | 0.00 | 0.00 | 59 | 1022.4 | |
| 20260509170012 | 12 | 0.0 | 0.0 | 0.00 | 0.00 | 0.00 | 58 | 1022.4 | |
| 20260509164510 | 12 | 0.0 | 0.0 | 0.00 | 0.00 | 0.00 | 58 | 1022.4 | |
| 20260509163011 | 12 | 0.0 | 0.0 | 0.00 | 0.00 | 0.00 | 58 | 1022.4 | |
| 20260509161510 | 13 | 0.0 | 0.0 | 0.00 | 0.00 | 0.00 | 57 | 1022.5 | |
| 20260509160012 | 13 | 0.0 | 0.0 | 0.00 | 0.00 | 0.00 | 56 | 1022.6 | |
| 20260509154513 | 13 | 0.0 | 0.0 | 0.00 | 0.00 | 0.00 | 56 | 1022.7 | |
| 20260509153011 | 13 | 0.0 | 0.0 | 0.00 | 0.00 | 0.00 | 55 | 1022.8 | |
| 20260509151510 | 13 | 0.0 | 0.0 | 0.00 | 0.00 | 0.00 | 54 | 1022.8 | |
| 20260509150012 | 14 | 0.0 | 0.0 | 0.00 | 0.00 | 0.00 | 53 | 1022.8 | |
| 20260509144512 | 14 | 0.0 | 0.0 | 0.00 | 0.00 | 0.00 | 53 | 1022.9 | |
| 20260509143011 | 14 | 0.0 | 0.0 | 0.00 | 0.00 | 0.00 | 52 | 1023.0 | |
| 20260509141512 | 15 | 0.0 | 0.0 | 0.00 | 0.00 | 0.00 | 52 | 1022.9 | |
| 20260509140013 | 15 | 0.0 | 0.0 | 0.00 | 0.00 | 0.00 | 51 | 1022.9 | |
| 20260509134512 | 15 | 0.0 | 0.0 | 0.00 | 0.00 | 0.00 | 50 | 1022.8 | |
| 20260509133012 | 16 | 0.0 | 0.0 | 0.00 | 0.00 | 0.00 | 49 | 1022.8 | |
| 20260509131514 | 16 | 0.0 | 0.0 | 0.00 | 0.00 | 0.00 | 49 | 1022.8 | |
| 20260509130013 | 16 | 0.0 | 0.0 | 0.00 | 0.00 | 0.00 | 49 | 1022.6 | |
| 20260509124510 | 17 | 0.0 | 0.0 | 0.00 | 0.00 | 0.00 | 46 | 1022.5 | |
| 20260509123013 | 17 | 0.0 | 0.0 | 0.00 | 0.00 | 0.00 | 44 | 1022.5 | |
| 20260509121511 | 17 | 0.0 | 0.0 | 0.00 | 0.00 | 0.00 | 43 | 1022.3 | |
| 20260509120012 | 17 | 0.0 | 0.0 | 0.00 | 0.00 | 0.00 | 43 | 1022.2 | |
| 20260509114511 | 18 | 0.0 | 0.0 | 0.00 | 0.00 | 0.00 | 42 | 1022.3 | |
| 20260509113011 | 18 | 0.0 | 0.0 | 0.00 | 0.00 | 0.00 | 41 | 1022.2 | |
| 20260509111514 | 18 | 0.0 | 0.0 | 0.00 | 0.00 | 0.00 | 40 | 1022.2 | |
| 20260509110013 | 19 | 0.0 | 0.0 | 0.00 | 0.00 | 0.00 | 39 | 1022.1 | |
| 20260509104511 | 20 | 0.0 | 0.0 | 0.00 | 0.00 | 0.00 | 38 | 1022.0 | |
| 20260509103016 | 20 | 0.0 | 0.0 | 0.00 | 0.00 | 0.00 | 38 | 1022.1 | |
| 20260509101512 | 20 | 0.0 | 0.0 | 0.00 | 0.00 | 0.00 | 37 | 1022.0 | |
| 20260509100012 | 21 | 0.0 | 0.0 | 0.00 | 0.00 | 0.00 | 36 | 1021.8 | |
| 20260509094512 | 21 | 0.0 | 0.0 | 0.00 | 0.00 | 0.00 | 36 | 1021.8 | |
| 20260509093012 | 22 | 0.0 | 0.0 | 0.00 | 0.00 | 0.00 | 34 | 1021.7 | |
| 20260509091511 | 22 | 0.0 | 0.0 | 0.00 | 0.00 | 0.00 | 31 | 1021.5 | |
| 20260509090015 | 23 | 0.0 | 0.0 | 0.00 | 0.00 | 0.00 | 30 | 1021.5 | |
| 20260509084510 | 23 | 0.0 | 0.0 | 0.00 | 0.00 | 0.00 | 30 | 1021.5 | |
| 20260509083010 | 23 | 0.0 | 0.0 | 0.00 | 0.00 | 0.00 | 31 | 1021.4 | |
| 20260509081511 | 23 | 0.0 | 0.0 | 0.00 | 0.00 | 0.00 | 30 | 1021.4 | |
| 20260509080011 | 24 | 0.0 | 0.0 | 0.00 | 0.00 | 0.00 | 30 | 1021.4 | |
| 20260509074510 | 24 | 0.0 | 0.0 | 0.00 | 0.00 | 0.00 | 30 | 1021.3 | |
| 20260509073013 | 25 | 0.0 | 0.0 | 0.00 | 0.00 | 0.00 | 30 | 1021.2 | |
| 20260509071512 | 25 | 0.0 | 0.0 | 0.00 | 0.00 | 0.00 | 31 | 1021.0 | |
| 20260509070010 | 24 | 0.0 | 0.0 | 0.00 | 0.00 | 0.00 | 32 | 1020.9 | |
| 20260509064511 | 24 | 0.0 | 0.0 | 0.00 | 0.00 | 0.00 | 31 | 1020.8 | |
| 20260509063012 | 24 | 0.0 | 0.0 | 0.00 | 0.00 | 0.00 | 31 | 1020.9 | |
| 20260509061511 | 24 | 0.0 | 0.0 | 0.00 | 0.00 | 0.00 | 32 | 1020.9 | |
| 20260509060011 | 24 | 0.0 | 0.0 | 0.00 | 0.00 | 0.00 | 32 | 1021.0 | |
| 20260509054514 | 24 | 0.0 | 0.0 | 0.00 | 0.00 | 0.00 | 33 | 1021.1 | |
| 20260509053011 | 24 | 0.0 | 0.0 | 0.00 | 0.00 | 0.00 | 33 | 1021.3 | |
| 20260509051513 | 24 | 0.0 | 0.0 | 0.00 | 0.00 | 0.00 | 34 | 1021.5 | |
| 20260509050012 | 23 | 0.0 | 0.0 | 0.00 | 0.00 | 0.00 | 35 | 1021.8 | |
| 20260509044512 | 23 | 0.0 | 0.0 | 0.00 | 0.00 | 0.00 | 37 | 1022.1 | |
| 20260509043016 | 23 | 0.0 | 0.0 | 0.00 | 0.00 | 0.00 | 37 | 1022.4 | |
| 20260509041511 | 23 | 0.0 | 0.0 | 0.00 | 0.00 | 0.00 | 37 | 1022.8 | |
| 20260509040010 | 22 | 0.0 | 0.0 | 0.00 | 0.00 | 0.00 | 37 | 1023.1 | |
| 20260509034513 | 22 | 0.0 | 0.0 | 0.00 | 0.00 | 0.00 | 38 | 1023.5 | |
| 20260509033016 | 22 | 0.0 | 0.0 | 0.00 | 0.00 | 0.00 | 39 | 1023.9 | |
| 20260509031511 | 21 | 0.0 | 0.0 | 0.00 | 0.00 | 0.00 | 39 | 1024.3 | |
| 20260509030013 | 21 | 0.0 | 0.0 | 0.00 | 0.00 | 0.00 | 41 | 1024.5 | |
| 20260509024511 | 21 | 0.0 | 0.0 | 0.00 | 0.00 | 0.00 | 41 | 1024.7 | |
| 20260509023012 | 20 | 0.0 | 0.0 | 0.00 | 0.00 | 0.00 | 42 | 1024.9 | |
| 20260509021511 | 20 | 0.0 | 0.0 | 0.00 | 0.00 | 0.00 | 44 | 1025.1 | |
| 20260509020011 | 19 | 0.0 | 0.0 | 0.00 | 0.00 | 0.00 | 44 | 1025.0 | |
| 20260509014511 | 18 | 0.0 | 0.0 | 0.00 | 0.00 | 0.00 | 45 | 1025.3 | |
| 20260509013012 | 18 | 0.0 | 0.0 | 0.00 | 0.00 | 0.00 | 47 | 1025.2 | |
| 20260509011700 | 17 | 0.0 | 0.0 | 0.00 | 0.00 | 0.00 | 48 | 1025.4 | |
| 20260509011511 | 17 | 0.0 | 0.0 | 0.00 | 0.00 | 0.00 | 48 | 1025.4 | |
| 20260509010012 | 17 | 0.0 | 0.0 | 0.00 | 0.00 | 0.00 | 49 | 1025.5 | |
| 20260509004512 | 17 | 0.0 | 0.0 | 0.00 | 0.00 | 0.00 | 50 | 1025.5 | |
| 20260509003010 | 16 | 0.0 | 0.0 | 0.00 | 0.00 | 0.00 | 51 | 1025.5 | |
| 20260509001512 | 16 | 0.0 | 0.0 | 0.00 | 0.00 | 0.00 | 52 | 1025.4 |